Погода в Нави Мумбаи

Индия     19°01′57″N   73°01′46″E
темп.,
°C
ветер,
м/с
пор.,
м/с
влажн.,
%
обл.,
%
осадки,
мм/ч
давл.,
гПа
погр.,
м
2 марта, вт
вт223:30+27в22440 0.0 101424
02:30+27с22450 0.0 101326
05:30+25в22460 0.0 101325
08:30+27св22410 0.0 101576
11:30+33ссз24280 0.0 1015776
14:30+33зсз76290 0.0 1012489
17:30+31сз812290 0.0 1011391
20:30+28с22350 0.0 101327
3 марта, ср
ср323:30+27ссв23350 0.0 101325
02:30+26с34350 0.0 101242
05:30+24всв23360 0.0 101146
08:30+26св23300 0.0 1013131
11:30+33зсз12240 0.0 1013385
14:30+33зсз76260 0.0 1010381
17:30+31сз69330 0.0 1009229
20:30+28св22400 0.0 101126
4 марта, чт
чт423:30+27ссв23370 0.0 101124
02:30+26с34350 0.0 101037
05:30+24св23370 0.0 101037
08:30+26в33310 0.0 1012116
11:30+33сз33230 0.0 1013537
14:30+34зсз76260 0.0 10091201
17:30+32сз812281 0.0 1008326
20:30+28всв12440 0.0 101125
5 марта, пт
пт523:30+27юв23460 0.0 101126
02:30+26с12490 0.0 101024
05:30+25всв22400 0.0 101026
08:30+27в123545 0.0 101364
11:30+32з322338 0.0 1013490
14:30+29зюз45380 0.0 1010230
17:30+29зюз34490 0.0 1009202
20:30+26ю23610 0.0 101134
6 марта, сб
сб623:30+25ю22560 0.0 101225
02:30+25ююз11600 0.0 101124
05:30+24юв11630 0.0 101024
08:30+26юв22490 0.0 1014132
11:30+29зюз43440 0.0 1014482
14:30+28зюз66580 0.0 1011328
17:30+28зюз45650 0.0 1010331
20:30+25ю11790 0.0 101227